Find Starlink 32441

NORAD ID: 61668 Int'l Des: 2024-193 Owner: SPXS Country: US Constellation: starlink operational
LEOCIRCULAR

リアルタイム位置

3D地球を読み込み中...

Starlink 32441について

説明を読み込み中...

次回通過

Passes for default location (London). Set your location on the main map for personalized predictions.

高度履歴

Loading altitude history...

軌道要素

1 61668U 24193H 26123.61002468 .00002401 00000-0 93181-4 0 9990
2 61668 53.1604 196.0182 0001291 79.6797 280.4349 15.30190400 84930
Epoch: May 3, 2026 • Age: 6 hours

現在のステータス

高度 480.7 km
速度 7.63 km/s
衛星直下点 -18.24°S, 135.98°W
打ち上げ日 Oct 26, 2024
運用期間 1.5 years
タイプ internet

技術仕様

分類 Payload
質量 730.00 kg
乾燥質量 700.00 kg
総質量 730.00 kg
長さ 0.30 m
直径 4.10 m
スパン 29.00 m
形状 Box + pan
製造者 SPXS
バスタイプ Starlink V2M
フェーズステータス In Orbit
所有者/国 SPXS/US

Most Searched